Tracking 19562 objects as of 24-Mar-2019
HD Live streaming from Space Station
objects crossing your sky now

RADIO 7

Track RADIO 7 now!
10-day predictions
RADIO 7 is classified as:


NORAD ID: 13001
Int'l Code: 1981-120E
Perigee: 1,628.2 km
Apogee: 1,668.6 km
Inclination: 83.0 °
Period: 119.1 minutes
Semi major axis: 8019 km
RCS: 0.8678 m2 (medium)
Launch date: December 17, 1981
Source: Commonwealth of Independent States (former USSR) (CIS)
Launch site: PLESETSK MISSILE AND SPACE COMPLEX (PKMTR)

Uplink (MHz):
Downlink (MHz):
Beacon (MHz):
Mode:
Call sign:
Status: Inactive

aabbcc
Your satellite tracking list
Your tracking list is empty




NASA's NSSDC Master Catalog

Two Line Element Set (TLE):
1 13001U 81120E   19082.91252387 +.00000062 +00000-0 +57639-3 0  9995
2 13001 082.9622 029.5964 0025236 071.2979 352.0850 12.08901274644162
Source of the keplerian elements: AFSPC